Regional Weather Roundup
Issued by NWS

Home | Current Version | Previous Version | Graphics & Text | Print | Product List | Glossary On
Versions: 1 2 3 4 5 6 7 8 9 10 11 12 13 14 15 16 17 18 19 20 21 22 23 24 25 26 27 28 29 30 31 32 33 34 35 36 37 38 39 40 41 42 43 44 45 46 47 48 49 50
528
ASUS43 KFSD 061402
RWRSD

WEATHER ROUNDUP FOR SOUTH DAKOTA
NATIONAL WEATHER SERVICE SIOUX FALLS SD
800 AM CST TUE DEC 06 2016

NOTE: "FAIR" INDICATES FEW OR NO CLOUDS BELOW 12,000 FEET WITH NO
SIGNIFICANT WEATHER AND/OR OBSTRUCTIONS TO VISIBILITY.


SDZ001>005-009-010-012>017-061500-
NORTHWEST AND NORTH CENTRAL SOUTH DAKOTA

CITY           SKY/WX    TMP DP  RH WIND       PRES   REMARKS
BUFFALO          N/A      2  -4  76 NW24G35   29.87S WCI -21
FAITH            N/A      4   0  83 NW29G37   29.91R WCI -20
MOBRIDGE       MIX PCPN  12   5  73 NW38G51   29.81S VSB 1   WCI -12
$$

SDZ012>016-024>037-041>051-057-063-072>074-061500-
SOUTHWEST AND SOUTH CENTRAL SOUTH DAKOTA

CITY           SKY/WX    TMP DP  RH WIND       PRES   REMARKS
RAPID CTY ARPT CLEAR      7   0  73 N13       29.95R WCI  -9
PIERRE         CLOUDY    13   6  74 NW30G43   29.93R WCI  -8
CUSTER         CLEAR      7  -3  64 NW13G21   29.79S WCI  -9
ELLSWORTH AFB  CLEAR      9   0  67 N16       29.94R WCI  -8
PHILIP         CLEAR     11   2  67 W22G35    30.00R WCI  -8
PINE RIDGE     CLEAR     10   3  73 W9        29.96S WCI  -3
SPEARFISH      FAIR       9  -2  61 NW18      29.94R WCI -10
WINNER         FAIR      14   5  67 W22G28    29.96R WCI  -4
$$

SDZ004>011-016>023-039-040-061500-
NORTHEAST SOUTH DAKOTA

CITY           SKY/WX    TMP DP  RH WIND       PRES   REMARKS
ABERDEEN       CLOUDY    15   8  73 W32G44    29.70R WCI  -6
WATERTOWN      LGT SNOW  14   9  80 W28G39    29.68R WCI  -6
SISSETON         N/A     19  14  81 W29G39    29.55S WCI   0
$$

SDZ017-020-022-023-036>040-048>070-061500-
SOUTHEAST SOUTH DAKOTA

CITY           SKY/WX    TMP DP  RH WIND       PRES   REMARKS
SIOUX FALLS    FLURRIES  17  12  80 W18G33    29.84S WCI   1
HURON          CLOUDY    14   7  73 W29G39    29.85S WCI  -7
CHAMBERLAIN    CLEAR     14   7  73 W18G29    29.94S WCI  -3
MITCHELL       MOCLDY    16   8  71 W24G38    29.91R WCI  -2
YANKTON        CLEAR    N/A N/A N/A W25G38    29.92R
$$

ABBREVIATIONS USED IN REMARKS
   TC - TEMPERATURE IN CELSIUS
  WCI - WIND CHILL INDEX
   HX - HEAT INDEX
  VSB - VISIBILITY





USA.gov is the U.S. government's official web portal to all federal, state and local government web resources and services.